Location: Clarks Summit,Pa.
(41.5000°N, 75.6000°W)
Time: 04:49:00
(UTC-05:00)

Envisat - Pass Details

Date: 25 November 2018
Orbit: 764 x 766 km, 98.2° (Epoch: 13 December)

Event Time Altitude Azimuth Distance (km) Brightness Sun altitude
Rises 19:17:52 0° 179° (S) 3,218 6.3 -30.0°
Reaches altitude 10° 19:20:13 10° 184° (S) 2,296 5.5 -30.4°
Enters shadow 19:20:29 11° 185° (S) 2,196 5.4 -30.4°
Exits shadow 19:24:23 47° 231° (SW) 1,010 3.8 -31.2°
Maximum altitude 19:25:08 51° 260° (W) 959 3.7 -31.3°
Drops below altitude 10° 19:30:05 10° 337° (NNW) 2,311 5.7 -32.2°
Sets 19:32:28 0° 342° (NNW) 3,241 6.5 -32.7°
